Find Starlink 34289

NORAD ID: 64225 Int'l Des: 2025-117 Owner: SPXS Country: US Constellation: starlink operational
LEOCIRCULAR

Live Position

Loading 3D Globe...

About Starlink 34289

Description loading...

Upcoming Passes

Passes for default location (London). Set your location on the main map for personalized predictions.

Altitude History

Loading altitude history...

Two-Line Element Set

1 64225U 25117Y 26106.49528741 .00007824 00000-0 27602-3 0 9991
2 64225 53.1589 224.0118 0001523 83.7328 276.3847 15.30199484 50345
Epoch: Apr 16, 2026 • Age: 9 hours

Current Status

Altitude 494.1 km
Velocity 7.62 km/s
Sub-Earth Point -51.66°S, 7.46°W
Launch Date May 31, 2025
Age 0.8 years
Type internet

Technical Details

Classification Payload
Mass 575.00 kg
Dry Mass 530.00 kg
Total Mass 575.00 kg
Length 0.30 m
Diameter 4.10 m
Span 29.00 m
Shape Box + pan
Manufacturer SPXS
Bus Type Starlink V2MO
Phase Status In Orbit
Owner/State SPXS/US

Most Searched